THOR ABLESTAR DEB, 5715

Orbit data source: Space-Track

THOR ABLESTAR DEB, 5715 is space debris in LEO originally from a launch on Thu, 29 Jun 1961 UTC launched from the Air Force Eastern Test Range (AFETR). Debris objects in space refer to the collection of defunct objects orbiting the Earth. Examples of debris include non-operational satellites, rocket bodies, and fragments generated from explosions, collisions, or faulty payload assembly.

Loading next visibility...
Identifier
5715, 1961-015JS
Orbit
LEO
Country
Flag of USUS
Related business
Manufacturer
Unknown
Mission
Spacecraft
Bus & Motor
Unknown
Mass
Unknown
Launch date (UTC)
1961-06-29 (65 years ago)
Launch vehicle
Unknown
Launch site
Air Force Eastern Test Range (AFETR)
Object type
Payload
Rocket body
Debris
Shape & HBR
Unknown shape, 0.1 m
Radar Cross Section
Medium (>0.1 m² and <1 m²)

Expand to show TLE details & history
Last TLE update: 8 hours ago

TLE from 8 hours ago
0 THOR ABLESTAR DEB
1 05715U 61015JS  26178.17385684  .00000335  00000-0  47186-3 0  9997
2 05715  66.5645  73.9321 0148726  51.8334  24.9657 13.64360553203092
Epoch: 2026-06-27T04:10Z
TLE epoch observation values (Epoch: 2026-06-27T04:10:21.230Z)
Latitude
63.73301°
Longitude
156.94771°
Altitude
930.545 km
Speed
7.443 km/s
True Right ascension
08h 59m 18s
True Declination
63° 35' 58"
Sunlit
Object was in daylight at epoch
Visualization orbit readout
Latitude
Unknown
Longitude
Unknown
Altitude
Unknown
Speed
Unknown
Apparent Right ascension
Unknown
Apparent Declination
Unknown
Sunlit
N/A
Visualization observer readout
Local Sidereal Time
23:27:09
Azimuth
Unknown
Elevation
Unknown
Doppler factor
Unknown
Orbital elements
Apogee altitude
1,128.332 km
Perigee altitude
908.323 km
Semi-major axis
7,396.464 km
Eccentricity
0.01487
Inclination
66.5645°
RAAN
73.9321°
Arg. of periapsis
51.8334°
True anomaly
25.69734°
Mean anomaly
24.9657°
Eccentric anomaly
25.33027°
Mean motion
3.41198 °/min
Orbital period
105.51 mins
BSTAR
0.00047186
Loading maneuver chart data...
Computing Atmospheric mass density...

Documentation

Showing up to 5 results
|